Time,TemperatureF,DewpointF,PressureIn,WindDirection,WindDirectionDegrees,WindSpeedMPH,WindSpeedGustMPH,Humidity,HourlyPrecipIn,Conditions,Clouds,dailyrainin,SoftwareType,DateUTC
2013-03-08 00:00:00,30.4,37.8,30.01,SSE,153,0.0,0.0,95,0.00,,,0.00,meteohub,2013-03-08 05:00:00,
2013-03-08 00:02:00,30.4,37.8,30.01,North,11,0.0,0.0,95,0.00,,,0.00,meteohub,2013-03-08 05:02:00,
2013-03-08 00:07:00,30.2,37.6,30.01,SSE,150,0.0,0.0,95,0.00,,,0.00,meteohub,2013-03-08 05:07:00,
2013-03-08 00:12:00,30.2,37.6,30.01,ESE,119,0.0,0.0,95,0.00,,,0.00,meteohub,2013-03-08 05:12:00,
2013-03-08 00:17:00,30.2,37.6,30.01,SE,126,0.0,0.0,95,0.00,,,0.00,meteohub,2013-03-08 05:17:00,
2013-03-08 00:22:00,30.2,37.6,30.01,ESE,123,0.0,0.0,95,0.00,,,0.00,meteohub,2013-03-08 05:22:00,
2013-03-08 00:27:00,30.2,37.6,30.01,SE,124,0.0,0.0,95,0.00,,,0.00,meteohub,2013-03-08 05:27:00,
2013-03-08 00:32:00,30.2,37.6,30.01,East,97,0.0,0.0,95,0.00,,,0.00,meteohub,2013-03-08 05:32:00,
2013-03-08 00:37:00,30.2,37.6,30.01,SSE,150,0.0,0.0,95,0.00,,,0.00,meteohub,2013-03-08 05:37:00,
2013-03-08 00:42:00,30.0,37.6,30.01,East,86,0.0,0.0,95,0.00,,,0.00,meteohub,2013-03-08 05:42:00,
2013-03-08 00:47:00,30.2,37.4,30.01,North,355,0.0,0.0,95,0.00,,,0.00,meteohub,2013-03-08 05:47:00,
2013-03-08 00:52:00,30.2,37.4,30.01,SSW,209,0.0,0.0,95,0.00,,,0.00,meteohub,2013-03-08 05:52:00,
2013-03-08 00:57:00,30.2,37.2,30.01,NNW,341,0.0,0.0,95,0.00,,,0.00,meteohub,2013-03-08 05:57:00,
2013-03-08 01:02:00,30.0,37.2,30.01,ESE,107,0.0,0.0,95,0.00,,,0.00,meteohub,2013-03-08 06:02:00,
2013-03-08 01:07:00,30.0,37.2,30.00,ESE,107,0.0,0.0,95,0.00,,,0.00,meteohub,2013-03-08 06:07:00,
2013-03-08 01:12:00,30.0,37.2,30.00,ESE,109,0.0,0.0,95,0.00,,,0.00,meteohub,2013-03-08 06:12:00,
2013-03-08 01:17:00,30.0,37.0,30.00,NNW,332,0.0,0.0,95,0.00,,,0.00,meteohub,2013-03-08 06:17:00,
2013-03-08 01:22:00,30.0,37.0,30.00,East,84,0.0,0.0,95,0.00,,,0.00,meteohub,2013-03-08 06:22:00,
2013-03-08 01:27:00,30.0,37.0,30.00,ENE,69,0.0,0.0,95,0.00,,,0.00,meteohub,2013-03-08 06:27:00,
2013-03-08 01:32:00,30.0,37.0,29.99,SE,142,0.0,0.0,95,0.00,,,0.00,meteohub,2013-03-08 06:32:00,
2013-03-08 01:37:00,30.0,36.9,29.99,ENE,57,0.0,0.0,95,0.00,,,0.00,meteohub,2013-03-08 06:37:00,
2013-03-08 01:42:00,30.0,36.9,29.99,NNW,338,0.0,0.0,95,0.00,,,0.00,meteohub,2013-03-08 06:42:00,
2013-03-08 01:47:00,30.0,36.9,29.99,ESE,106,0.0,0.0,95,0.00,,,0.00,meteohub,2013-03-08 06:47:00,
2013-03-08 01:52:00,30.0,36.9,29.99,ESE,118,0.0,0.0,95,0.00,,,0.00,meteohub,2013-03-08 06:52:00,
2013-03-08 01:57:00,30.0,37.0,29.99,ESE,118,0.0,0.0,95,0.00,,,0.00,meteohub,2013-03-08 06:57:00,
2013-03-08 02:02:00,30.0,37.0,29.99,East,84,0.0,0.0,95,0.00,,,0.00,meteohub,2013-03-08 07:02:00,
2013-03-08 02:07:00,30.0,37.0,29.99,ESE,114,0.0,0.0,95,0.00,,,0.00,meteohub,2013-03-08 07:07:00,
2013-03-08 02:12:00,30.0,37.0,29.98,NE,51,0.0,0.0,95,0.00,,,0.00,meteohub,2013-03-08 07:12:00,
2013-03-08 02:17:00,30.0,36.9,29.98,SE,126,0.0,0.0,95,0.00,,,0.00,meteohub,2013-03-08 07:17:00,
2013-03-08 02:22:00,30.0,36.9,29.98,SSE,163,0.0,0.0,95,0.00,,,0.00,meteohub,2013-03-08 07:22:00,
2013-03-08 02:27:00,30.0,36.7,29.98,ESE,103,0.0,0.0,95,0.00,,,0.00,meteohub,2013-03-08 07:27:00,
2013-03-08 02:32:00,29.8,36.7,29.98,SE,138,0.0,0.0,95,0.00,,,0.00,meteohub,2013-03-08 07:32:00,
2013-03-08 02:37:00,29.8,36.7,29.98,SE,128,0.0,0.0,95,0.00,,,0.00,meteohub,2013-03-08 07:37:00,
2013-03-08 02:42:00,29.8,36.7,29.98,South,187,0.0,0.0,95,0.00,,,0.00,meteohub,2013-03-08 07:42:00,
2013-03-08 02:47:00,29.8,36.7,29.97,North,349,0.0,0.0,95,0.00,,,0.00,meteohub,2013-03-08 07:47:00,
2013-03-08 02:52:00,29.8,36.7,29.97,ESE,121,0.0,0.0,95,0.00,,,0.00,meteohub,2013-03-08 07:52:00,
2013-03-08 02:58:00,29.8,36.5,29.97,SE,137,0.0,0.0,95,0.00,,,0.00,meteohub,2013-03-08 07:58:00,
2013-03-08 03:03:00,29.8,36.7,29.97,SSE,152,0.0,0.0,95,0.00,,,0.00,meteohub,2013-03-08 08:03:00,
2013-03-08 03:08:00,29.8,36.7,29.97,ESE,105,0.0,0.0,95,0.00,,,0.00,meteohub,2013-03-08 08:08:00,
2013-03-08 03:13:00,29.8,36.7,29.97,WNW,294,0.0,0.0,95,0.00,,,0.00,meteohub,2013-03-08 08:13:00,
2013-03-08 03:18:00,29.8,36.7,29.97,NNW,343,0.0,0.0,95,0.00,,,0.00,meteohub,2013-03-08 08:18:00,
2013-03-08 03:23:00,29.8,36.9,29.96,SSE,155,0.0,0.0,95,0.00,,,0.00,meteohub,2013-03-08 08:23:00,
2013-03-08 03:28:00,29.8,36.9,29.97,SE,126,0.0,0.0,95,0.00,,,0.00,meteohub,2013-03-08 08:28:00,
2013-03-08 03:33:00,29.8,36.9,29.97,NNE,25,0.0,0.0,95,0.00,,,0.00,meteohub,2013-03-08 08:33:00,
2013-03-08 03:38:00,29.8,36.7,29.97,ESE,115,0.0,0.0,95,0.00,,,0.00,meteohub,2013-03-08 08:38:00,
2013-03-08 03:43:00,29.8,36.7,29.97,ESE,123,0.0,0.0,95,0.00,,,0.00,meteohub,2013-03-08 08:43:00,
2013-03-08 03:48:00,29.8,36.7,29.97,SE,140,0.0,0.0,95,0.00,,,0.00,meteohub,2013-03-08 08:48:00,
2013-03-08 03:53:00,29.8,36.5,29.97,SSE,165,0.0,0.0,95,0.00,,,0.00,meteohub,2013-03-08 08:53:00,
2013-03-08 03:58:00,29.8,36.5,29.97,ESE,107,0.0,0.0,95,0.00,,,0.00,meteohub,2013-03-08 08:58:00,
2013-03-08 04:03:00,29.8,36.5,29.97,North,0,0.0,0.0,95,0.00,,,0.00,meteohub,2013-03-08 09:03:00,
2013-03-08 04:08:00,29.8,36.5,29.97,NNW,333,0.0,0.0,95,0.00,,,0.00,meteohub,2013-03-08 09:08:00,
2013-03-08 04:13:00,29.8,36.7,29.97,SE,145,0.0,0.0,95,0.00,,,0.00,meteohub,2013-03-08 09:13:00,
2013-03-08 04:18:00,29.8,36.7,29.97,ESE,122,0.0,0.0,95,0.00,,,0.00,meteohub,2013-03-08 09:18:00,
2013-03-08 04:23:00,29.8,36.7,29.97,SSE,168,0.0,0.0,95,0.00,,,0.00,meteohub,2013-03-08 09:23:00,
2013-03-08 04:28:00,29.8,36.7,29.97,West,280,0.0,0.0,95,0.00,,,0.00,meteohub,2013-03-08 09:28:00,
2013-03-08 04:33:00,29.8,36.7,29.97,East,92,0.0,0.0,95,0.00,,,0.00,meteohub,2013-03-08 09:33:00,
2013-03-08 04:38:00,29.8,36.5,29.97,ESE,121,0.0,0.0,95,0.00,,,0.00,meteohub,2013-03-08 09:38:00,
2013-03-08 04:43:00,29.8,36.5,29.97,SE,142,0.0,0.0,95,0.00,,,0.00,meteohub,2013-03-08 09:43:00,
2013-03-08 04:48:00,29.8,36.5,29.97,SE,146,0.0,0.0,96,0.00,,,0.00,meteohub,2013-03-08 09:48:00,
2013-03-08 04:53:00,29.8,36.5,29.97,SE,132,0.0,0.0,96,0.00,,,0.00,meteohub,2013-03-08 09:53:00,
2013-03-08 04:58:00,29.8,36.5,29.97,East,85,0.0,0.0,96,0.00,,,0.00,meteohub,2013-03-08 09:58:00,
2013-03-08 05:03:00,29.8,36.5,29.96,SSE,156,0.0,0.0,96,0.00,,,0.00,meteohub,2013-03-08 10:03:00,
2013-03-08 05:08:00,29.8,36.5,29.97,ESE,121,0.0,0.0,96,0.00,,,0.00,meteohub,2013-03-08 10:08:00,
2013-03-08 05:13:00,29.8,36.5,29.96,SSE,155,0.0,0.0,95,0.00,,,0.00,meteohub,2013-03-08 10:13:00,
2013-03-08 05:18:00,29.8,36.5,29.96,SSE,161,0.0,0.0,95,0.00,,,0.00,meteohub,2013-03-08 10:18:00,
2013-03-08 05:23:00,29.8,37.6,29.96,NNW,343,0.0,0.0,96,0.00,,,0.00,meteohub,2013-03-08 10:23:00,
2013-03-08 05:28:00,29.8,36.5,29.96,South,181,0.0,0.0,96,0.00,,,0.00,meteohub,2013-03-08 10:28:00,
2013-03-08 05:33:00,29.8,36.5,29.97,SSE,150,0.0,0.0,95,0.00,,,0.00,meteohub,2013-03-08 10:33:00,
2013-03-08 05:38:00,29.8,36.5,29.96,ENE,60,0.0,0.0,96,0.00,,,0.00,meteohub,2013-03-08 10:38:00,
2013-03-08 05:44:00,29.8,36.5,29.97,East,82,0.0,0.0,96,0.00,,,0.00,meteohub,2013-03-08 10:44:00,
2013-03-08 05:49:00,29.8,36.5,29.97,SSE,168,0.0,0.0,96,0.00,,,0.00,meteohub,2013-03-08 10:49:00,
2013-03-08 05:54:00,29.8,36.5,29.97,South,175,0.0,0.0,96,0.00,,,0.00,meteohub,2013-03-08 10:54:00,
2013-03-08 05:59:00,29.8,36.5,29.97,SE,146,0.0,0.0,96,0.00,,,0.00,meteohub,2013-03-08 10:59:00,
2013-03-08 06:04:00,29.8,36.5,29.97,ESE,106,0.0,0.0,96,0.00,,,0.00,meteohub,2013-03-08 11:04:00,
2013-03-08 06:09:00,29.8,36.5,29.97,ESE,119,0.0,0.0,96,0.00,,,0.00,meteohub,2013-03-08 11:09:00,
2013-03-08 06:14:00,30.0,36.5,29.97,NNW,333,0.0,0.0,96,0.00,,,0.00,meteohub,2013-03-08 11:14:00,
2013-03-08 06:19:00,29.8,36.5,29.97,South,171,0.0,0.0,96,0.00,,,0.00,meteohub,2013-03-08 11:19:00,
2013-03-08 06:24:00,29.8,36.5,29.97,ESE,108,0.0,0.0,96,0.00,,,0.00,meteohub,2013-03-08 11:24:00,
2013-03-08 06:29:00,30.0,36.5,29.98,ENE,75,0.0,0.0,96,0.00,,,0.00,meteohub,2013-03-08 11:29:00,
2013-03-08 06:34:00,30.0,37.6,29.98,SE,124,0.0,0.0,96,0.00,,,0.00,meteohub,2013-03-08 11:34:00,
2013-03-08 06:39:00,30.0,37.6,29.98,SE,144,0.0,0.0,96,0.00,,,0.00,meteohub,2013-03-08 11:39:00,
2013-03-08 06:44:00,30.0,37.6,29.98,SSE,167,0.0,0.0,96,0.00,,,0.00,meteohub,2013-03-08 11:44:00,
2013-03-08 06:49:00,30.0,37.6,29.98,SSE,166,0.0,0.0,96,0.00,,,0.00,meteohub,2013-03-08 11:49:00,
2013-03-08 06:54:00,30.0,37.6,29.98,ENE,76,0.0,0.0,96,0.00,,,0.00,meteohub,2013-03-08 11:54:00,
2013-03-08 06:59:00,30.0,37.6,29.98,SE,136,0.0,0.0,96,0.00,,,0.00,meteohub,2013-03-08 11:59:00,
2013-03-08 07:04:00,30.0,37.6,29.99,SE,126,0.0,0.0,96,0.00,,,0.00,meteohub,2013-03-08 12:04:00,
2013-03-08 07:09:00,30.0,37.6,29.99,SSE,157,0.0,0.0,96,0.00,,,0.00,meteohub,2013-03-08 12:09:00,
2013-03-08 07:14:00,30.0,37.6,29.99,ESE,111,0.0,0.0,96,0.00,,,0.00,meteohub,2013-03-08 12:14:00,
2013-03-08 07:19:00,30.0,37.6,29.99,ESE,117,0.0,0.0,96,0.00,,,0.00,meteohub,2013-03-08 12:19:00,
2013-03-08 07:24:00,30.0,37.6,29.99,SE,130,0.0,0.0,96,0.00,,,0.00,meteohub,2013-03-08 12:24:00,
2013-03-08 07:29:00,30.0,37.6,29.99,ESE,111,0.0,0.0,96,0.00,,,0.00,meteohub,2013-03-08 12:29:00,
2013-03-08 07:34:00,30.0,37.6,29.99,SE,130,0.0,0.0,96,0.00,,,0.00,meteohub,2013-03-08 12:34:00,
2013-03-08 07:39:00,30.0,37.6,29.99,SSE,167,0.0,0.0,96,0.00,,,0.00,meteohub,2013-03-08 12:39:00,
2013-03-08 07:44:00,30.0,37.2,29.99,ESE,118,0.0,0.0,96,0.00,,,0.00,meteohub,2013-03-08 12:44:00,
2013-03-08 07:49:00,30.0,37.2,29.99,SSE,153,0.0,0.0,96,0.00,,,0.00,meteohub,2013-03-08 12:49:00,
2013-03-08 18:10:00,35.1,39.4,30.12,ESE,111,0.0,0.0,93,0.00,,,0.00,meteohub,2013-03-08 23:10:00,
2013-03-08 18:16:00,35.1,39.6,30.12,ESE,111,0.0,0.0,93,0.00,,,0.00,meteohub,2013-03-08 23:16:00,
2013-03-08 18:21:00,35.1,39.6,30.12,ESE,111,0.0,0.0,93,0.00,,,0.00,meteohub,2013-03-08 23:21:00,
2013-03-08 18:26:00,35.1,39.6,30.12,ESE,111,0.0,0.0,93,0.00,,,0.00,meteohub,2013-03-08 23:26:00,
2013-03-08 18:31:00,35.2,39.6,30.12,ESE,111,0.0,0.0,93,0.00,,,0.00,meteohub,2013-03-08 23:31:00,
2013-03-08 18:36:00,35.2,39.7,30.12,ESE,111,0.0,0.0,92,0.00,,,0.00,meteohub,2013-03-08 23:36:00,
2013-03-08 18:41:00,35.4,39.7,30.12,ESE,111,0.0,0.0,92,0.00,,,0.00,meteohub,2013-03-08 23:41:00,
2013-03-08 18:46:00,35.4,39.7,30.12,ESE,111,0.0,0.0,92,0.00,,,0.00,meteohub,2013-03-08 23:46:00,
2013-03-08 18:51:00,35.4,39.7,30.12,ESE,111,0.0,0.0,92,0.00,,,0.00,meteohub,2013-03-08 23:51:00,
2013-03-08 18:56:00,35.4,39.7,30.12,ESE,111,0.0,0.0,92,0.00,,,0.00,meteohub,2013-03-08 23:56:00,
2013-03-08 19:01:00,35.4,39.7,30.12,ESE,111,0.0,0.0,91,0.00,,,0.00,meteohub,2013-03-09 00:01:00,
2013-03-08 19:06:00,35.4,39.7,30.12,ESE,111,0.0,0.0,91,0.00,,,0.00,meteohub,2013-03-09 00:06:00,
2013-03-08 19:11:00,35.4,39.6,30.12,ESE,111,0.0,0.0,91,0.00,,,0.00,meteohub,2013-03-09 00:11:00,
2013-03-08 19:16:00,35.4,39.6,30.12,ESE,111,0.0,0.0,90,0.00,,,0.00,meteohub,2013-03-09 00:16:00,
2013-03-08 19:21:00,35.2,39.7,30.13,ESE,111,0.0,0.0,90,0.00,,,0.00,meteohub,2013-03-09 00:21:00,
2013-03-08 19:26:00,35.2,39.7,30.13,ESE,111,0.0,0.0,90,0.00,,,0.00,meteohub,2013-03-09 00:26:00,
2013-03-08 19:31:00,35.1,39.7,30.13,ESE,111,0.0,0.0,90,0.00,,,0.00,meteohub,2013-03-09 00:31:00,
2013-03-08 19:36:00,35.1,39.7,30.13,ESE,111,0.0,0.0,90,0.00,,,0.00,meteohub,2013-03-09 00:36:00,
2013-03-08 19:41:00,34.7,39.7,30.13,ESE,111,0.0,0.0,89,0.00,,,0.00,meteohub,2013-03-09 00:41:00,
2013-03-08 19:46:00,34.3,39.7,30.14,ESE,111,0.0,0.0,89,0.00,,,0.00,meteohub,2013-03-09 00:46:00,
2013-03-08 19:51:00,34.3,39.7,30.14,ESE,111,0.0,0.0,90,0.00,,,0.00,meteohub,2013-03-09 00:51:00,
2013-03-08 19:56:00,34.2,39.6,30.14,ESE,111,0.0,0.0,90,0.00,,,0.00,meteohub,2013-03-09 00:56:00,
2013-03-08 20:01:00,33.6,39.6,30.14,ESE,111,0.0,0.0,90,0.00,,,0.00,meteohub,2013-03-09 01:01:00,
2013-03-08 20:06:00,33.4,39.6,30.14,ESE,111,0.0,0.0,90,0.00,,,0.00,meteohub,2013-03-09 01:06:00,
2013-03-08 20:11:00,33.4,39.4,30.14,ESE,111,0.0,0.0,90,0.00,,,0.00,meteohub,2013-03-09 01:11:00,
2013-03-08 20:16:00,33.4,39.4,30.14,ESE,111,0.0,0.0,90,0.00,,,0.00,meteohub,2013-03-09 01:16:00,
2013-03-08 20:21:00,33.3,39.4,30.14,ESE,111,0.0,1.0,90,0.00,,,0.00,meteohub,2013-03-09 01:21:00,
2013-03-08 20:26:00,33.3,39.4,30.14,ESE,111,0.0,1.0,90,0.00,,,0.00,meteohub,2013-03-09 01:26:00,
2013-03-08 20:31:00,33.3,39.4,30.15,ESE,111,0.0,1.0,89,0.00,,,0.00,meteohub,2013-03-09 01:31:00,
2013-03-08 20:36:00,33.1,39.4,30.15,ESE,111,0.0,1.0,89,0.00,,,0.00,meteohub,2013-03-09 01:36:00,
2013-03-08 20:41:00,33.1,39.4,30.15,ESE,111,0.0,1.0,89,0.00,,,0.00,meteohub,2013-03-09 01:41:00,
2013-03-08 20:46:00,33.1,39.4,30.15,ESE,111,0.0,1.0,89,0.00,,,0.00,meteohub,2013-03-09 01:46:00,
2013-03-08 20:51:00,33.1,39.4,30.15,ESE,111,0.0,1.0,88,0.00,,,0.00,meteohub,2013-03-09 01:51:00,
2013-03-08 20:56:00,33.1,39.2,30.15,ESE,111,0.0,1.0,87,0.00,,,0.00,meteohub,2013-03-09 01:56:00,
2013-03-08 21:02:00,33.3,38.3,30.16,ESE,111,0.0,1.0,86,0.00,,,0.00,meteohub,2013-03-09 02:02:00,
2013-03-08 21:07:00,33.4,38.3,30.16,ESE,111,0.0,1.0,85,0.00,,,0.00,meteohub,2013-03-09 02:07:00,
2013-03-08 21:12:00,33.4,38.1,30.16,ESE,112,0.0,1.0,84,0.00,,,0.00,meteohub,2013-03-09 02:12:00,
2013-03-08 21:17:00,33.6,39.0,30.16,ESE,111,0.0,1.0,83,0.00,,,0.00,meteohub,2013-03-09 02:17:00,
2013-03-08 21:22:00,33.8,39.0,30.16,ESE,111,0.0,1.0,82,0.00,,,0.00,meteohub,2013-03-09 02:22:00,
2013-03-08 21:27:00,34.0,39.0,30.16,ESE,111,0.0,1.0,81,0.00,,,0.00,meteohub,2013-03-09 02:27:00,
2013-03-08 21:32:00,34.0,39.0,30.16,ESE,111,0.0,1.0,81,0.00,,,0.00,meteohub,2013-03-09 02:32:00,
2013-03-08 21:37:00,34.0,39.0,30.17,ESE,111,0.0,1.0,80,0.00,,,0.00,meteohub,2013-03-09 02:37:00,
2013-03-08 21:42:00,34.0,39.0,30.17,ESE,111,0.0,0.0,80,0.00,,,0.00,meteohub,2013-03-09 02:42:00,
2013-03-08 21:47:00,33.8,39.0,30.17,ESE,112,0.0,0.0,80,0.00,,,0.00,meteohub,2013-03-09 02:47:00,
2013-03-08 21:52:00,33.6,37.9,30.16,ESE,112,0.0,1.0,80,0.00,,,0.00,meteohub,2013-03-09 02:52:00,
2013-03-08 21:57:00,33.6,37.9,30.17,ESE,112,0.0,1.0,79,0.00,,,0.00,meteohub,2013-03-09 02:57:00,
2013-03-08 22:02:00,33.6,37.8,30.17,ESE,112,0.0,1.0,79,0.00,,,0.00,meteohub,2013-03-09 03:02:00,
2013-03-08 22:07:00,33.6,37.6,30.16,ESE,112,0.0,1.0,78,0.00,,,0.00,meteohub,2013-03-09 03:07:00,
2013-03-08 22:12:00,34.0,37.6,30.17,ESE,112,0.0,1.0,77,0.00,,,0.00,meteohub,2013-03-09 03:12:00,
2013-03-08 22:17:00,34.0,37.6,30.17,ESE,111,0.0,1.0,77,0.00,,,0.00,meteohub,2013-03-09 03:17:00,
2013-03-08 22:22:00,34.0,37.6,30.17,ESE,112,0.0,1.0,77,0.00,,,0.00,meteohub,2013-03-09 03:22:00,
2013-03-08 22:27:00,34.0,37.4,30.17,ESE,112,0.0,2.0,76,0.00,,,0.00,meteohub,2013-03-09 03:27:00,
2013-03-08 22:32:00,34.2,37.4,30.17,ESE,112,0.0,2.0,75,0.00,,,0.00,meteohub,2013-03-09 03:32:00,
2013-03-08 22:37:00,34.3,37.2,30.17,ESE,112,0.0,2.0,75,0.00,,,0.00,meteohub,2013-03-09 03:37:00,
2013-03-08 22:42:00,34.3,37.2,30.17,ESE,112,0.0,2.0,74,0.00,,,0.00,meteohub,2013-03-09 03:42:00,
2013-03-08 22:47:00,34.3,37.2,30.17,ESE,111,0.0,2.0,74,0.00,,,0.00,meteohub,2013-03-09 03:47:00,
2013-03-08 22:52:00,34.2,37.2,30.17,ESE,111,0.0,1.0,75,0.00,,,0.00,meteohub,2013-03-09 03:52:00,
2013-03-08 22:57:00,34.0,37.2,30.17,ESE,112,0.0,0.0,75,0.00,,,0.00,meteohub,2013-03-09 03:57:00,
2013-03-08 23:02:00,33.6,37.0,30.17,ESE,111,0.0,0.0,76,0.00,,,0.00,meteohub,2013-03-09 04:02:00,
2013-03-08 23:07:00,33.4,37.0,30.17,ESE,111,0.0,0.0,76,0.00,,,0.00,meteohub,2013-03-09 04:07:00,
2013-03-08 23:12:00,33.3,36.9,30.17,ESE,112,0.0,0.0,76,0.00,,,0.00,meteohub,2013-03-09 04:12:00,
2013-03-08 23:17:00,33.3,36.9,30.17,ESE,112,0.0,0.0,76,0.00,,,0.00,meteohub,2013-03-09 04:17:00,
2013-03-08 23:22:00,33.3,37.9,30.17,ESE,112,0.0,0.0,76,0.00,,,0.00,meteohub,2013-03-09 04:22:00,
2013-03-08 23:27:00,33.3,37.9,30.17,ESE,112,0.0,0.0,76,0.00,,,0.00,meteohub,2013-03-09 04:27:00,
2013-03-08 23:32:00,33.1,37.0,30.17,ESE,111,0.0,1.0,76,0.00,,,0.00,meteohub,2013-03-09 04:32:00,
2013-03-08 23:37:00,33.1,37.0,30.17,ESE,112,0.0,1.0,76,0.00,,,0.00,meteohub,2013-03-09 04:37:00,
2013-03-08 23:42:00,33.1,37.0,30.17,ESE,111,0.0,1.0,75,0.00,,,0.00,meteohub,2013-03-09 04:42:00,
2013-03-08 23:47:00,33.3,37.9,30.17,ESE,111,0.0,1.0,75,0.00,,,0.00,meteohub,2013-03-09 04:47:00,
2013-03-08 23:52:00,33.4,37.0,30.17,ESE,112,0.0,1.0,74,0.00,,,0.00,meteohub,2013-03-09 04:52:00,
2013-03-08 23:57:00,33.4,36.9,30.17,ESE,112,0.0,1.0,74,0.00,,,0.00,meteohub,2013-03-09 04:57:00,